Total_Precipitation_Accumulation
0.00 0.01 0.02 0.02 0.02 0.02 0.04 0.05 0.09 0.12 0.11 0.13 0.29 0.45 0.44 0.53 0.76 0.90 1.10 1.32 1.50 1.68 1.91 2.03 1.97 2.10 2.19 2.40 2.56 2.72 3.20 3.34 3.23 3.00 2.68 2.50 2.39 2.34 2.23 2.08 1.92 1.89 1.90 2.00
0.01 0.03 0.01 0.01 0.02 0.02 0.05 0.08 0.11 0.13 0.10 0.12 0.25 0.42 0.48 0.71 0.98 0.99 0.97 1.06 1.20 1.51 1.71 1.84 1.85 1.80 2.04 2.44 2.66 2.67 2.60 2.71 2.75 2.68 2.58 2.56 2.60 2.37 2.16 2.04 1.87 1.75 1.79 1.87
0.03 0.03 0.01 0.01 0.02 0.02 0.04 0.05 0.09 0.14 0.13 0.16 0.24 0.50 0.64 0.81 0.92 0.98 1.04 1.07 1.18 1.42 1.59 1.67 1.66 1.60 1.69 1.81 1.94 1.99 2.01 1.92 1.90 1.96 2.11 2.19 2.25 2.06 1.89 1.83 1.76 1.64 1.59 1.55
0.03 0.02 0.03 0.03 0.04 0.04 0.05 0.05 0.04 0.06 0.13 0.22 0.30 0.75 0.95 0.88 0.91 1.05 1.04 1.04 1.24 1.48 1.38 1.36 1.39 1.37 1.40 1.44 1.50 1.50 1.53 1.54 1.55 1.65 1.75 1.76 1.75 1.66 1.63 1.64 1.55 1.50 1.44 1.41
0.05 0.04 0.03 0.05 0.05 0.04 0.04 0.04 0.04 0.07 0.16 0.24 0.30 0.61 0.92 1.11 1.16 1.02 0.97 0.91 1.08 1.17 1.02 0.98 1.03 1.00 1.03 1.02 1.12 1.20 1.30 1.31 1.32 1.35 1.39 1.43 1.41 1.41 1.43 1.37 1.30 1.24 1.21 1.27
0.05 0.05 0.04 0.03 0.03 0.03 0.03 0.05 0.10 0.19 0.35 0.53 0.44 0.54 0.88 1.15 1.26 1.02 0.93 0.87 0.93 0.91 0.86 0.90 0.90 0.84 0.85 0.91 1.00 1.08 1.15 1.18 1.19 1.19 1.20 1.20 1.20 1.20 1.19 1.16 1.17 1.13 1.09 1.03
0.12 0.11 0.09 0.05 0.04 0.05 0.04 0.11 0.38 0.64 0.85 0.84 0.55 0.62 0.95 0.96 0.95 0.88 0.84 0.90 0.93 0.83 0.74 0.70 0.71 0.72 0.78 0.81 0.82 0.82 0.87 0.93 0.88 0.86 0.91 0.92 0.92 0.91 0.93 0.92 0.89 0.83 0.75 0.74
0.17 0.24 0.14 0.08 0.07 0.07 0.08 0.13 0.43 0.59 0.59 0.66 0.56 0.80 1.16 0.94 0.86 0.78 0.78 0.87 0.84 0.69 0.59 0.56 0.54 0.55 0.59 0.59 0.56 0.57 0.63 0.71 0.74 0.72 0.72 0.64 0.59 0.58 0.57 0.66 0.66 0.61 0.57 0.56
0.10 0.10 0.07 0.06 0.07 0.09 0.13 0.16 0.21 0.39 0.39 0.49 0.60 0.83 1.01 0.83 0.78 0.81 0.89 0.93 0.84 0.64 0.49 0.43 0.41 0.39 0.38 0.38 0.41 0.47 0.53 0.58 0.63 0.61 0.57 0.52 0.47 0.43 0.43 0.47 0.53 0.54 0.58 0.54
0.05 0.03 0.05 0.05 0.06 0.09 0.12 0.12 0.15 0.31 0.39 0.48 0.54 0.80 0.99 1.02 0.97 0.88 0.92 0.80 0.58 0.44 0.34 0.30 0.26 0.24 0.25 0.26 0.31 0.38 0.42 0.42 0.44 0.44 0.43 0.38 0.36 0.37 0.39 0.40 0.42 0.44 0.47 0.50
0.03 0.02 0.04 0.07 0.09 0.10 0.14 0.17 0.24 0.33 0.33 0.46 0.60 0.69 0.66 0.71 0.80 0.85 0.79 0.61 0.40 0.29 0.21 0.20 0.20 0.21 0.22 0.21 0.25 0.33 0.39 0.42 0.43 0.42 0.41 0.35 0.30 0.29 0.30 0.31 0.33 0.39 0.41 0.44
0.02 0.02 0.04 0.10 0.13 0.11 0.11 0.14 0.23 0.35 0.32 0.35 0.47 0.51 0.33 0.34 0.42 0.46 0.42 0.34 0.27 0.22 0.19 0.21 0.23 0.23 0.22 0.23 0.27 0.34 0.39 0.44 0.48 0.50 0.51 0.46 0.40 0.36 0.34 0.32 0.30 0.31 0.35 0.38
0.02 0.02 0.05 0.23 0.37 0.23 0.13 0.11 0.13 0.17 0.19 0.20 0.32 0.37 0.24 0.26 0.33 0.41 0.49 0.49 0.42 0.33 0.23 0.19 0.21 0.23 0.24 0.28 0.33 0.43 0.49 0.50 0.53 0.58 0.65 0.64 0.51 0.46 0.46 0.40 0.34 0.32 0.32 0.32
0.03 0.03 0.05 0.22 0.29 0.20 0.16 0.12 0.09 0.14 0.23 0.21 0.20 0.27 0.26 0.27 0.33 0.40 0.44 0.40 0.32 0.25 0.20 0.18 0.20 0.23 0.26 0.29 0.29 0.32 0.36 0.38 0.44 0.46 0.55 0.66 0.61 0.50 0.38 0.30 0.31 0.33 0.33 0.34
0.03 0.02 0.03 0.05 0.07 0.10 0.15 0.12 0.09 0.09 0.15 0.26 0.22 0.20 0.22 0.21 0.20 0.24 0.25 0.22 0.18 0.16 0.14 0.15 0.18 0.21 0.25 0.25 0.22 0.20 0.17 0.17 0.23 0.28 0.35 0.44 0.39 0.33 0.31 0.28 0.22 0.20 0.24 0.29
0.04 0.03 0.02 0.03 0.05 0.08 0.10 0.12 0.09 0.07 0.07 0.10 0.14 0.20 0.20 0.20 0.20 0.21 0.19 0.17 0.16 0.16 0.13 0.12 0.14 0.17 0.19 0.16 0.11 0.08 0.08 0.11 0.18 0.24 0.29 0.36 0.35 0.28 0.23 0.19 0.14 0.14 0.20 0.28
0.08 0.05 0.04 0.04 0.05 0.07 0.13 0.13 0.08 0.05 0.04 0.05 0.14 0.23 0.21 0.21 0.20 0.18 0.16 0.14 0.12 0.10 0.08 0.07 0.06 0.06 0.05 0.05 0.04 0.05 0.06 0.07 0.15 0.24 0.32 0.37 0.42 0.42 0.31 0.18 0.16 0.19 0.25 0.33
0.09 0.06 0.03 0.04 0.07 0.18 0.15 0.08 0.06 0.06 0.04 0.06 0.08 0.10 0.11 0.10 0.07 0.06 0.06 0.05 0.04 0.04 0.04 0.03 0.02 0.02 0.02 0.03 0.04 0.07 0.07 0.08 0.13 0.23 0.31 0.34 0.39 0.40 0.36 0.31 0.29 0.32 0.39 0.45
0.09 0.08 0.07 0.05 0.08 0.13 0.10 0.10 0.10 0.10 0.08 0.07 0.07 0.05 0.05 0.05 0.05 0.07 0.04 0.03 0.03 0.04 0.04 0.03 0.02 0.03 0.03 0.04 0.07 0.12 0.12 0.15 0.20 0.30 0.39 0.40 0.42 0.42 0.37 0.35 0.39 0.43 0.49 0.50
0.10 0.10 0.12 0.12 0.14 0.17 0.14 0.15 0.14 0.12 0.16 0.10 0.08 0.06 0.04 0.04 0.08 0.12 0.06 0.02 0.02 0.04 0.07 0.06 0.04 0.05 0.06 0.08 0.11 0.16 0.22 0.27 0.35 0.44 0.50 0.49 0.53 0.56 0.52 0.52 0.54 0.54 0.58 0.53
0.20 0.17 0.15 0.17 0.21 0.22 0.18 0.18 0.14 0.20 0.26 0.11 0.09 0.07 0.04 0.04 0.06 0.06 0.04 0.02 0.01 0.02 0.02 0.03 0.05 0.05 0.07 0.10 0.14 0.24 0.29 0.33 0.37 0.40 0.48 0.55 0.62 0.69 0.73 0.77 0.74 0.71 0.67 0.64
0.17 0.23 0.28 0.29 0.35 0.31 0.18 0.13 0.17 0.22 0.18 0.14 0.12 0.08 0.05 0.04 0.03 0.01 0.01 0.02 0.01 0.02 0.03 0.04 0.06 0.06 0.08 0.11 0.18 0.25 0.30 0.32 0.36 0.41 0.50 0.58 0.64 0.64 0.73 0.98 0.98 1.00 0.95 0.83
0.16 0.19 0.24 0.28 0.28 0.18 0.15 0.17 0.17 0.17 0.18 0.15 0.12 0.08 0.05 0.04 0.03 0.03 0.03 0.03 0.03 0.03 0.04 0.06 0.10 0.12 0.14 0.18 0.29 0.41 0.39 0.39 0.44 0.50 0.57 0.62 0.63 0.70 0.85 0.98 1.03 1.08 1.05 0.92
0.19 0.17 0.22 0.27 0.27 0.26 0.18 0.16 0.18 0.14 0.12 0.10 0.09 0.07 0.07 0.07 0.07 0.06 0.05 0.05 0.06 0.06 0.07 0.10 0.15 0.22 0.30 0.34 0.41 0.51 0.48 0.49 0.55 0.57 0.61 0.64 0.69 0.72 0.81 0.98 0.99 0.99 0.96 0.94
0.12 0.17 0.23 0.29 0.24 0.22 0.20 0.23 0.20 0.13 0.10 0.09 0.07 0.06 0.07 0.07 0.07 0.06 0.06 0.07 0.08 0.08 0.09 0.15 0.24 0.32 0.40 0.48 0.54 0.58 0.61 0.68 0.72 0.68 0.65 0.69 0.74 0.80 0.86 0.92 0.98 0.93 0.88 0.79
0.08 0.16 0.26 0.29 0.26 0.35 0.32 0.21 0.13 0.09 0.07 0.07 0.06 0.05 0.06 0.07 0.07 0.07 0.06 0.07 0.07 0.08 0.10 0.16 0.24 0.33 0.42 0.50 0.58 0.63 0.73 0.86 0.94 0.93 0.83 0.82 0.85 0.89 0.95 0.95 0.86 0.72 0.64 0.51